This is the latest recevied weather packets stored in our database for station/object SQ5DN-4. If no packets are shown the sender has not sent any weather packets the latest 10 day(s).
| Time | Temp. | Humidity | Pressure | Rain* | Wind** | Luminosity | Snow |
|---|---|---|---|---|---|---|---|
| 1777645332 | 21.11° C | 35% | 1020 hPa | - | - | - | - |
| 1777644754 | 21.11° C | 36% | 1020 hPa | - | - | - | - |
| 1777644212 | 20.56° C | 36% | 1020 hPa | - | - | - | - |
| 1777643636 | 21.11° C | 35% | 1020 hPa | - | - | - | - |
| 1777643082 | 20.56° C | 34% | 1020 hPa | - | - | - | - |
| 1777642482 | 21.11° C | 35% | 1020 hPa | - | - | - | - |
| 1777641936 | 21.11° C | 36% | 1020 hPa | - | - | - | - |
| 1777641347 | 20.56° C | 35% | 1021 hPa | - | - | - | - |
| 1777640807 | 21.67° C | 33% | 1021 hPa | - | - | - | - |
| 1777640262 | 20.56° C | 36% | 1021 hPa | - | - | - | - |
| 1777639742 | 20.56° C | 37% | 1021 hPa | - | - | - | - |
| 1777639182 | 20.56° C | 37% | 1021 hPa | - | - | - | - |
| 1777638672 | 20° C | 36% | 1021 hPa | - | - | - | - |
| 1777638156 | 21.11° C | 36% | 1021 hPa | - | - | - | - |
| 1777637562 | 20.56° C | 37% | 1021 hPa | - | - | - | - |
| 1777637052 | 20.56° C | 36% | 1022 hPa | - | - | - | - |
| 1777636452 | 20.56° C | 37% | 1022 hPa | - | - | - | - |
| 1777635916 | 20.56° C | 36% | 1022 hPa | - | - | - | - |
| 1777635436 | 19.44° C | 36% | 1022 hPa | - | - | - | - |
| 1777634837 | 19.44° C | 36% | 1022 hPa | - | - | - | - |
| 1777634347 | 19.44° C | 36% | 1022 hPa | - | - | - | - |
| 1777633796 | 19.44° C | 38% | 1022 hPa | - | - | - | - |
| 1777633207 | 19.44° C | 39% | 1022 hPa | - | - | - | - |
| 1777632656 | 20° C | 39% | 1022 hPa | - | - | - | - |
| 1777632136 | 19.44° C | 38% | 1022 hPa | - | - | - | - |
* Rain since midnight (hover to see other rain measurements)
** Current wind speed in m/s (hover to see current wind gust speed)